Weather Roundup
Issued by NWS Chicago, IL

Home | Current Version | Previous Version | Graphics & Text | Print | Product List | Glossary On
Versions: 1 2 3 4 5 6 7 8 9 10 11 12 13 14 15 16 17 18 19 20 21 22 23 24 25 26 27 28 29 30 31 32 33 34 35 36 37 38 39 40 41 42 43 44 45 46 47 48 49 50
000
NZUS59 KLOT 312201
HRRLOT

CHICAGO AREA WEATHER ROUNDUP
NATIONAL WEATHER SERVICE CHICAGO/ROMEOVILLE IL
500 PM CDT FRI JUL 31 2015

NOTE: "FAIR" INDICATES FEW OR NO CLOUDS BELOW 12,000 FEET WITH NO
SIGNIFICANT WEATHER AND/OR OBSTRUCTIONS TO VISIBILITY.

* THESE STATIONS ARE NOT UNDER NWS QUALITY CONTROL. THEY ALSO MAY NOT
  REPORT WEATHER SUCH AS PRECIPITATION OR FOG.

ILZ005-006-012>014-019>023-312300-
NORTHEAST ILLINOIS

CITY           SKY/WX    TMP DP  RH WIND       PRES   REMARKS
OHARE          SUNNY     86  48  26 NW21G31   29.93S HX  83
MIDWAY         MOSUNNY   88  49  25 NW17G30   29.93F HX  85
AURORA         SUNNY     83  56  39 NW12G23   29.96F HX  82
WAUKEGAN       SUNNY     81  48  31 NW13G22   29.93S HX  80
DUPAGE AIRPORT SUNNY     84  49  29 NW15G25   29.95S HX  82
WHEELING       SUNNY     84  46  26 NW15G32   29.95S HX  82
NORTHERLY IS     N/A     84  47  27 NW14        N/A  HX  82
$$

WIZ051-052-058>065-066-070>072-312300-
SOUTHEAST WISCONSIN

CITY           SKY/WX    TMP DP  RH WIND       PRES   REMARKS
MILWAUKEE      MOSUNNY   82  47  29 NW18G28   29.93S HX  80
KENOSHA*       SUNNY     81  50  33 W16G28    29.94S HX  80
RACINE*        MOSUNNY   83  49  30 W15G24    29.94S HX  81
WAUKESHA       MOSUNNY   79  48  34 NW12      29.95S
$$

INZ001>003-010>013-019-020-312300-
NORTHWEST INDIANA

CITY           SKY/WX    TMP DP  RH WIND       PRES   REMARKS
GARY*          MOSUNNY   86  48  26 NW14G29   29.94S HX  83
MICHIGAN CITY* NOT AVBL
RENSSELAER*    NOT AVBL
$$

LMZ740>746-312300-
SOUTHERN LAKE MICHIGAN

STATION/POSITION TIME  SKY/WX   TEMP WIND        PRES    VSBY
                                AIR  DIR/SP/G
                 (UTC)          (F)  (DEG/KT/KT) (MB)    (MI)
HARRISON CRIB    2100            81  310/ 21/ 26   N/A
BURNHAM HARBOR   2100            85  280/ 15/ 20   N/A
CALUMET HARBOR   2100            86  280/ 11/ 19   N/A
BURNS HARBOR     2100            79  350/  5/  9 1013.9F
MICHIGAN CITY    2100            80  290/  9/ 10   N/A
$$

ABBREVIATIONS USED IN REMARKS
   TC - TEMPERATURE IN CELSIUS
  WCI - WIND CHILL INDEX
   HX - HEAT INDEX
  VSB - VISIBILITY
$$



USA.gov is the U.S. government's official web portal to all federal, state and local government web resources and services.